Weather History for TIST - February, 2013

Change the Weather History Date:

Tuesday, February 12, 2013

  Actual Average Record
Temperature  
Mean Temperature 79 °F 79 °F  
Max Temperature 84 °F 85 °F 90 °F (1995)
Min Temperature 74 °F 73 °F 65 °F (1972)
Degree Days  
Heating Degree Days 0 0  
Month to date heating degree days 0 0  
Since 1 July heating degree days 0 0  
Cooling Degree Days 14 14  
Month to date cooling degree days 156 168  
Year to date cooling degree days 583 596  
Growing Degree Days 28 (Base 50)    
Moisture  
Dew Point 64 °F    
Average Humidity 64    
Maximum Humidity 74    
Minimum Humidity 54    
Precipitation  
Precipitation 0.00 in 0.05 in 0.40 in (1964)
Month to date precipitation T 0.65  
Year to date precipitation 0.55 3.03  
Sea Level Pressure  
Sea Level Pressure 30.07 in    
Wind  
Wind Speed 13 mph (ENE)    
Max Wind Speed 21 mph    
Max Gust Speed 28 mph    
Visibility 10 miles    
Events      
T = Trace of Precipitation, MM = Missing Value Source: NWS Daily Summary

Daily Weather History Graph

Daily Weather History Graph

Search for Another Location

Airport or City:

Trip Planner

Search our weather history database for the weather conditions in past years. The results will help you decide how hot, cold, wet, or windy it might be!

Date:

Astronomy

Feb. 12, 2013 Rise Set
Actual Time 6:48 AM AST 6:19 PM AST
Civil Twilight 6:26 AM AST 6:41 PM AST
Nautical Twilight 6:00 AM AST 7:07 PM AST
Astronomical Twilight 5:35 AM AST 7:33 PM AST
Moon 8:13 AM AST (2/12) 8:41 PM AST (2/12)
Length of Visible Light 12h 15m
Length of Day
11h 30m
Waxing Crescent, 7% of the Moon is Illuminated
Feb 12
Waxing Crescent
Feb 17
First Quarter
Feb 25
Full
Mar 4
Last Quarter
Mar 11
New

Hourly Weather History & Observations

Time (AST) Temp. Heat Index Dew Point Humidity Pressure Visibility Wind Dir Wind Speed Gust Speed Precip Events Conditions
12:53 AM 73.9 °F - 61.0 °F 64% 30.09 in 10.0 mi East 15.0 mph 20.7 mph N/A   Clear
1:53 AM 75.0 °F - 62.1 °F 64% 30.08 in 10.0 mi East 16.1 mph 21.9 mph N/A   Mostly Cloudy
2:53 AM 75.0 °F - 63.0 °F 66% 30.07 in 10.0 mi NE 12.7 mph 20.7 mph N/A   Partly Cloudy
3:53 AM 75.0 °F - 64.0 °F 69% 30.06 in 10.0 mi ENE 11.5 mph 21.9 mph N/A   Overcast
4:53 AM 75.0 °F - 64.0 °F 69% 30.06 in 10.0 mi ENE 16.1 mph 21.9 mph N/A   Mostly Cloudy
5:53 AM 75.0 °F - 64.0 °F 69% 30.06 in 10.0 mi ENE 13.8 mph 24.2 mph N/A   Scattered Clouds
6:53 AM 75.0 °F - 63.0 °F 66% 30.07 in 10.0 mi ENE 13.8 mph 25.3 mph N/A   Scattered Clouds
7:53 AM 75.9 °F - 63.0 °F 64% 30.08 in 10.0 mi ENE 12.7 mph 23.0 mph N/A   Partly Cloudy
8:53 AM 78.1 °F - 61.0 °F 56% 30.09 in 10.0 mi ENE 15.0 mph 23.0 mph N/A   Clear
9:53 AM 80.1 °F 81.5 °F 63.0 °F 56% 30.11 in 10.0 mi ENE 15.0 mph 24.2 mph N/A   Partly Cloudy
10:53 AM 82.0 °F 83.8 °F 64.9 °F 56% 30.10 in 10.0 mi East 12.7 mph 24.2 mph N/A   Scattered Clouds
11:53 AM 82.0 °F 83.8 °F 64.9 °F 56% 30.10 in 10.0 mi East 13.8 mph 21.9 mph N/A   Mostly Cloudy
12:53 PM 82.0 °F 84.1 °F 66.0 °F 58% 30.08 in 10.0 mi NE 16.1 mph 26.5 mph N/A   Overcast
1:53 PM 82.0 °F 83.4 °F 64.0 °F 54% 30.06 in 10.0 mi NE 17.3 mph 25.3 mph N/A   Mostly Cloudy
2:53 PM 81.0 °F 82.5 °F 64.0 °F 56% 30.05 in 10.0 mi ENE 16.1 mph 24.2 mph N/A   Mostly Cloudy
3:53 PM 80.1 °F 81.5 °F 63.0 °F 56% 30.04 in 10.0 mi ENE 13.8 mph 24.2 mph N/A   Clear
4:53 PM 79.0 °F - 63.0 °F 58% 30.05 in 10.0 mi ENE 16.1 mph 23.0 mph N/A   Clear
5:53 PM 77.0 °F - 64.0 °F 64% 30.05 in 10.0 mi ENE 11.5 mph 21.9 mph N/A   Partly Cloudy
6:53 PM 75.9 °F - 64.0 °F 67% 30.05 in 10.0 mi East 8.1 mph - N/A   Clear
7:53 PM 75.9 °F - 64.9 °F 69% 30.06 in 10.0 mi East 9.2 mph - N/A   Partly Cloudy
8:53 PM 75.0 °F - 64.9 °F 71% 30.08 in 10.0 mi East 10.4 mph - N/A   Scattered Clouds
9:53 PM 75.0 °F - 64.9 °F 71% 30.09 in 10.0 mi East 9.2 mph - N/A   Scattered Clouds
10:53 PM 75.0 °F - 66.0 °F 73% 30.09 in 10.0 mi East 5.8 mph - N/A   Partly Cloudy
11:53 PM 73.9 °F - 64.9 °F 73% 30.09 in 10.0 mi East 6.9 mph - N/A   Clear